FW4407 Weather Reports


Display with metric or nautical units.
time (UTC)temp
F
wind
direction
speed
MPH
gust
MPH
rain 1hr
in
rain 24hr
in
rain mn
in
humidity
%
barometer
mb
20260508190022 67 0.0 0.0 0.00 0.00 0.00 56 1015.8
20260508185047 67 0.0 0.0 0.00 0.00 0.00 57 1015.8
20260508184015 67 0.0 0.0 0.00 0.00 0.00 58 1015.5
20260508183020 67 0.0 0.0 0.00 0.00 0.00 59 1015.5
20260508182025 67 0.0 0.0 0.00 0.00 0.00 59 1015.5
20260508181030 67 13 2.0 5.0 0.00 0.00 0.00 58 1015.4
20260508180018 67 331 0.0 2.0 0.00 0.00 0.00 58 1014.9
20260508175023 68 0.0 0.0 0.00 0.00 0.00 58 1015.0
20260508174028 68 0.0 0.0 0.00 0.00 0.00 56 1014.6
20260508173016 68 194 0.0 2.0 0.00 0.00 0.00 55 1014.4
20260508172021 69 236 1.0 8.0 0.00 0.00 0.00 54 1014.1
20260508171026 69 223 1.0 8.0 0.00 0.00 0.00 53 1014.5
20260508170031 70 226 1.0 8.0 0.00 0.00 0.00 52 1014.6
20260508165019 70 105 0.0 2.0 0.00 0.00 0.00 51 1014.4
20260508164024 71 281 1.0 8.0 0.00 0.00 0.00 50 1014.4
20260508163029 71 241 3.0 10.0 0.00 0.00 0.00 48 1014.4
20260508162017 71 266 2.0 10.0 0.00 0.00 0.00 48 1014.4
20260508161022 72 235 4.0 10.0 0.00 0.00 0.00 48 1014.3
20260508160027 72 237 3.0 8.0 0.00 0.00 0.00 47 1014.2
20260508155015 73 243 2.0 10.0 0.00 0.00 0.00 46 1014.4
20260508154020 74 226 1.0 8.0 0.00 0.00 0.00 45 1014.5
20260508153025 74 286 1.0 8.0 0.00 0.00 0.00 44 1014.5
20260508152030 74 241 1.0 10.0 0.00 0.00 0.00 44 1014.3
20260508151018 75 259 3.0 13.0 0.00 0.00 0.00 45 1014.5
20260508150043 75 255 2.0 10.0 0.00 0.00 0.00 44 1014.2
20260508145028 76 235 2.0 8.0 0.00 0.00 0.00 44 1014.3
20260508144016 76 243 3.0 13.0 0.00 0.00 0.00 46 1014.2
20260508143021 76 256 1.0 8.0 0.00 0.00 0.00 46 1014.2
20260508142026 76 241 3.0 13.0 0.00 0.00 0.00 45 1014.2
20260508141031 77 237 3.0 10.0 0.00 0.00 0.00 42 1014.4
20260508140019 76 227 2.0 10.0 0.00 0.00 0.00 42 1014.5
20260508135024 76 241 3.0 8.0 0.00 0.00 0.00 41 1014.6
20260508134029 76 214 3.0 10.0 0.00 0.00 0.00 43 1014.9
20260508133017 76 260 2.0 8.0 0.00 0.00 0.00 42 1015.0
20260508132021 76 242 4.0 13.0 0.00 0.00 0.00 42 1015.2
20260508131027 76 232 3.0 10.0 0.00 0.00 0.00 42 1015.2
20260508130015 75 216 2.0 10.0 0.00 0.00 0.00 40 1015.3
20260508125020 75 230 3.0 5.0 0.00 0.00 0.00 39 1015.5
20260508124025 74 245 3.0 10.0 0.00 0.00 0.00 40 1015.8
20260508123030 74 232 4.0 13.0 0.00 0.00 0.00 40 1015.9
20260508122018 74 221 4.0 13.0 0.00 0.00 0.00 40 1016.1
20260508121023 74 247 4.0 15.0 0.00 0.00 0.00 40 1016.3
20260508120048 73 224 4.0 13.0 0.00 0.00 0.00 41 1015.9
20260508115016 72 238 5.0 13.0 0.00 0.00 0.00 41 1016.2
20260508114021 72 215 1.0 8.0 0.00 0.00 0.00 46 1016.0
20260508113026 72 122 1.0 5.0 0.00 0.00 0.00 47 1015.8
20260508112031 71 257 0.0 2.0 0.00 0.00 0.00 47 1016.4
20260508111019 71 345 0.0 2.0 0.00 0.00 0.00 49 1016.7
20260508110044 71 278 0.0 2.0 0.00 0.00 0.00 49 1016.8
20260508105029 71 0.0 0.0 0.00 0.00 0.00 49 1017.0
20260508104017 71 268 0.0 2.0 0.00 0.00 0.00 50 1017.2
20260508103022 70 288 1.0 5.0 0.00 0.00 0.00 50 1017.4
20260508102026 70 0.0 0.0 0.00 0.00 0.00 51 1017.3
20260508101015 70 271 0.0 5.0 0.00 0.00 0.00 52 1017.4
20260508100019 70 243 0.0 5.0 0.00 0.00 0.00 52 1017.5
20260508095045 71 262 1.0 5.0 0.00 0.00 0.00 52 1017.8
20260508094031 71 176 0.0 2.0 0.00 0.00 0.00 51 1018.1
20260508093038 70 280 0.0 5.0 0.00 0.00 0.00 49 1017.9
20260508092023 70 250 2.0 8.0 0.00 0.00 0.00 50 1018.0
20260508091028 69 219 1.0 8.0 0.00 0.00 0.00 51 1018.0
20260508090016 69 248 0.0 5.0 0.00 0.00 0.00 53 1018.1
20260508085020 68 235 1.0 8.0 0.00 0.00 0.00 55 1018.1
20260508084025 68 325 0.0 2.0 0.00 0.00 0.00 55 1018.2
20260508083031 68 0.0 0.0 0.00 0.00 0.00 53 1018.1
20260508082019 69 317 0.0 2.0 0.00 0.00 0.00 53 1018.2
20260508081024 69 235 0.0 5.0 0.00 0.00 0.00 52 1018.3
20260508080028 69 336 0.0 5.0 0.00 0.00 0.00 50 1018.4
20260508075016 68 253 2.0 8.0 0.00 0.00 0.00 48 1018.5
20260508074021 68 234 0.0 5.0 0.00 0.00 0.00 47 1018.5
20260508073027 68 201 0.0 5.0 0.00 0.00 0.00 46 1018.5
20260508072032 68 263 1.0 5.0 0.00 0.00 0.00 46 1018.7
20260508071019 68 245 1.0 5.0 0.00 0.00 0.00 45 1018.8
20260508070025 67 252 1.0 5.0 0.00 0.00 0.00 44 1019.1
20260508065030 67 259 0.0 2.0 0.00 0.00 0.00 44 1018.8
20260508064018 67 246 2.0 8.0 0.00 0.00 0.00 44 1018.8
20260508063023 67 258 0.0 2.0 0.00 0.00 0.00 46 1018.5
20260508062028 67 309 0.0 2.0 0.00 0.00 0.00 47 1018.5
20260508061015 67 271 0.0 2.0 0.00 0.00 0.00 48 1018.4
20260508060020 67 298 0.0 2.0 0.00 0.00 0.00 49 1017.9
20260508055026 67 278 0.0 5.0 0.00 0.00 0.00 50 1017.6
20260508054031 67 242 0.0 2.0 0.00 0.00 0.00 50 1017.4
20260508053038 66 0.0 0.0 0.00 0.00 0.00 50 1017.1
20260508052024 66 0.0 0.0 0.00 0.00 0.00 51 1016.9
20260508051029 66 0.0 0.0 0.00 0.00 0.00 51 1016.8
20260508050017 66 0.0 0.0 0.00 0.00 0.00 51 1016.8
20260508045021 65 0.0 0.0 0.00 0.00 0.00 52 1016.8
20260508044027 65 0.0 0.0 0.00 0.00 0.00 51 1016.8
20260508043052 65 0.0 0.0 0.00 0.00 0.00 50 1016.3
20260508042019 65 0.0 0.0 0.00 0.00 0.00 52 1016.2
20260508041025 65 0.0 0.0 0.00 0.00 0.00 53 1016.1
20260508040050 65 0.0 0.0 0.00 0.00 0.00 53 1016.0
20260508035017 65 0.0 0.0 0.00 0.00 0.00 54 1015.9
20260508034042 65 0.0 0.0 0.00 0.00 0.00 54 1015.9
20260508033028 65 0.0 0.0 0.00 0.00 0.00 54 1015.9
20260508032056 65 0.0 0.0 0.00 0.00 0.00 54 1015.9
20260508031020 64 0.0 0.0 0.00 0.00 0.00 52 1015.8
20260508030025 64 117 0.0 2.0 0.00 0.00 0.00 56 1015.8
20260508025031 64 0.0 0.0 0.00 0.00 0.00 58 1015.9
20260508024018 64 0.0 0.0 0.00 0.00 0.00 58 1015.9
20260508023043 64 0.0 0.0 0.00 0.00 0.00 59 1016.0
20260508022029 64 0.0 0.0 0.00 0.00 0.00 60 1015.9
20260508021016 64 0.0 0.0 0.00 0.00 0.00 61 1015.9
20260508020021 64 0.0 0.0 0.00 0.00 0.00 61 1016.0
20260508015026 64 0.0 0.0 0.00 0.00 0.00 61 1015.9
20260508014031 64 0.0 0.0 0.00 0.00 0.00 62 1016.2
20260508013019 64 0.0 0.0 0.00 0.00 0.00 63 1016.2
20260508012024 63 0.0 0.0 0.00 0.00 0.00 63 1016.2
20260508011030 63 0.0 0.0 0.00 0.00 0.00 63 1016.5
20260508010017 63 0.0 0.0 0.00 0.00 0.00 64 1016.5
20260508005023 64 0.0 0.0 0.00 0.00 0.00 64 1016.7
20260508004027 64 0.0 0.0 0.00 0.00 0.00 64 1016.6
20260508003016 64 0.0 0.0 0.00 0.00 0.00 64 1016.6
20260508002020 64 0.0 0.0 0.00 0.00 0.00 64 1016.8
20260508001025 64 0.0 0.0 0.00 0.00 0.00 64 1016.7
20260508000030 64 0.0 0.0 0.00 0.00 0.00 64 1016.9
20260507235038 64 0.0 0.0 0.00 0.00 0.00 64 1017.1
20260507234043 64 0.0 0.0 0.00 0.00 0.00 63 1017.3
20260507233028 64 0.0 0.0 0.00 0.00 0.00 62 1017.4
20260507232016 64 0.0 0.0 0.00 0.00 0.00 61 1017.3
20260507231021 64 0.0 0.0 0.00 0.00 0.00 61 1017.3
20260507230026 64 0.0 0.0 0.00 0.00 0.00 60 1017.5
20260507225031 65 0.0 0.0 0.00 0.00 0.00 60 1017.6
20260507224039 65 0.0 0.0 0.00 0.00 0.00 59 1017.6
20260507223024 65 0.0 0.0 0.00 0.00 0.00 58 1017.6
20260507222029 65 0.0 0.0 0.00 0.00 0.00 57 1017.6
20260507221018 65 0.0 0.0 0.00 0.00 0.00 56 1017.6
20260507220022 65 0.0 0.0 0.00 0.00 0.00 55 1017.7
20260507215017 65 0.0 0.0 0.00 0.00 0.00 54 1017.9
20260507214022 66 0.0 0.0 0.00 0.00 0.00 52 1017.9
20260507213047 66 278 0.0 2.0 0.00 0.00 0.00 51 1017.9
20260507212016 66 0.0 0.0 0.00 0.00 0.00 51 1018.2
20260507211020 66 0.0 0.0 0.00 0.00 0.00 50 1018.3
20260507210025 66 0.0 0.0 0.00 0.00 0.00 50 1018.1
20260507205030 66 0.0 0.0 0.00 0.00 0.00 51 1018.1
20260507204038 66 0.0 0.0 0.00 0.00 0.00 51 1017.9
20260507203023 66 0.0 0.0 0.00 0.00 0.00 50 1017.9
20260507202033 66 0.0 0.0 0.00 0.00 0.00 50 1018.0
20260507201016 66 157 0.0 5.0 0.00 0.00 0.00 49 1017.9
20260507200021 66 0.0 0.0 0.00 0.00 0.00 48 1017.9
20260507195046 66 0.0 0.0 0.00 0.00 0.00 48 1018.0
20260507194031 67 132 1.0 5.0 0.00 0.00 0.00 47 1017.7
20260507193019 67 131 1.0 5.0 0.00 0.00 0.00 47 1017.8
20260507192024 67 0.0 0.0 0.00 0.00 0.00 48 1017.6
20260507191029 67 0.0 0.0 0.00 0.00 0.00 49 1017.7